Погода в Тушиловке

Россия / Республика Дагестан     44°18′33″N   46°52′52″E
темп.,
°C
ветер,
м/с
пор.,
м/с
влажн.,
%
обл.,
%
осадки,
мм/ч
давл.,
гПа
погр.,
м
26 июня, вс
вс2600:00+21в228097 0.0 100816
03:00+21зсз2276100 0.0 100826
06:00+25св246499 0.0 1007254
09:00+28св6746100 0.0 1006888
12:00+29всв674589 0.0 10061032
15:00+29всв67457 0.0 1004965
18:00+27всв45535 0.0 1004482
21:00+23ссв3382100 0.0 100527
27 июня, пн
пн2700:00+22з4880100 0.2 1006168
03:00+22зсз597992 0.4 1006167
06:00+24зсз257712 0.0 1007270
09:00+28св88633 0.0 10081009
12:00+28св910580 0.0 10091079
15:00+27св1012560 0.0 1009795
18:00+26св8125893 0.0 1008674
21:00+25ссв61160100 0.1 1009493
28 июня, вт
вт2800:00+23ссв51068100 0.9 1009301
03:00+23ссв81370100 2.1 1009487
06:00+24ссв71067100 0.2 1009762
09:00+26с78521 0.5 10101047
12:00+27с78456 0.2 10101181
15:00+28ссв68351 0.9 10101109
18:00+27ссв46394 0.0 1011528
21:00+22зсз33535 0.0 101218
29 июня, ср
ср2900:00+22сз334633 0.0 101220
03:00+21ссз335316 0.0 101119
06:00+24с3654100 0.0 1012282
09:00+28св544126 0.0 1013833
12:00+28всв86554 0.0 10131141
15:00+26всв876034 0.0 10141093
18:00+23в786547 0.0 1014656
21:00+21в586839 0.0 1015254
30 июня, чт
чт3000:00+21в4757100 0.0 1015210
03:00+20в4751100 0.0 1015206
06:00+23в464215 0.0 1015909
09:00+26в66345 0.0 10151479
12:00+26всв65344 0.0 10151524
15:00+26всв653513 0.0 10141362
18:00+24вюв4438100 0.0 1015744
21:00+19ююв44566 0.0 101567